Location: Arroyo de Valdeoliva
(40.1604°N, 4.9878°W)
Time: 08:43:24
(UTC+00:00)

Cosmos 1825 Rocket - Pass Details

Date: 25 March 2026
Orbit: 596 x 624 km, 82.5° (Epoch: 18 April)

Event Time Altitude Azimuth Distance (km) Brightness Sun altitude
Rises 03:30:48 0° 14° (NNE) 2,881 7.6 -30.6°
Reaches altitude 10° 03:34:27 10° 46° (NE) 1,963 7.0 -30.0°
Maximum altitude 03:36:07 12° 69° (ENE) 1,829 6.8 -29.7°
Drops below altitude 10° 03:37:48 10° 92° (E) 1,951 6.8 -29.4°
Sets 03:41:23 0° 124° (SE) 2,841 7.3 -28.9°
